Powrót do katalogu

SL-3 DEB

AktywnySSO
NORAD 14229·DEBRIS·🇷🇺 Russia

Wystrzelony Jul 24, 1983 z Baikonur Cosmodrome

Loading…

Następne Przeloty (najbliższe 24 godziny)

TLE

ŚwieżeSource: Space-Track

Epoka: Sep 14, 2026, 11:00 UTC

1 14229U 83075D   26257.45887013  .00001770  00000-0  11110-3 0  9991
2 14229  97.8967 256.6595 0028230  28.7171 125.8485 15.10395837344900

Śledź SL-3 DEB w czasie rzeczywistym z AllMySat

Download on the App Store